contact: severine.martini@mio.osupytheas.fr, dominique.lefevre@mio.osupytheas.fr
Project:EMSO Ligure-ouest http://www.emso-fr.org/EMSO-France
Sensor Microcat Sea-Bird SBE37 SMP,  Serial 57510 
DOI : "https://doi.org/10.17882/97948" 
Title:EMSO Ligure Ouest : Data Bathybot capteur Microcat - deploiement 2023-04-28
Datetime,Profondeur,Latitude,Longitude,Temperature,Conductivite,Pression,Salinite
time,m,degree_north,degree_east,degree_C,S/m,db,PSU 
2023-12-27T00:00:49,2420,42.8014,5.9826,13.3014,4.59965,2453.604,38.4889
2023-12-27T00:03:49,2420,42.8014,5.9826,13.3026,4.59949,2453.619,38.4861
2023-12-27T00:06:49,2420,42.8014,5.9826,13.2988,4.59948,2453.604,38.4898
2023-12-27T00:09:49,2420,42.8014,5.9826,13.2984,4.59936,2453.604,38.4890
2023-12-27T00:12:49,2420,42.8014,5.9826,13.2987,4.59932,2453.590,38.4884
2023-12-27T00:15:49,2420,42.8014,5.9826,13.2989,4.59944,2453.649,38.4893
2023-12-27T00:18:49,2420,42.8014,5.9826,13.2980,4.59948,2453.604,38.4905
2023-12-27T00:21:49,2420,42.8014,5.9826,13.2983,4.59939,2453.604,38.4894
2023-12-27T00:24:49,2420,42.8014,5.9826,13.2985,4.59933,2453.641,38.4886
2023-12-27T00:27:49,2420,42.8014,5.9826,13.2979,4.59939,2453.604,38.4898
2023-12-27T00:30:49,2420,42.8014,5.9826,13.2983,4.59931,2453.627,38.4887
2023-12-27T00:33:49,2420,42.8014,5.9826,13.2982,4.59930,2453.582,38.4887
2023-12-27T00:36:49,2420,42.8014,5.9826,13.2978,4.59926,2453.627,38.4887
2023-12-27T00:39:49,2420,42.8014,5.9826,13.2979,4.59922,2453.604,38.4883
2023-12-27T00:42:49,2420,42.8014,5.9826,13.2979,4.59924,2453.604,38.4884
2023-12-27T00:45:49,2420,42.8014,5.9826,13.2977,4.59914,2453.604,38.4877
2023-12-27T00:48:49,2420,42.8014,5.9826,13.2976,4.59927,2453.604,38.4890
2023-12-27T00:51:49,2420,42.8014,5.9826,13.2982,4.59926,2453.590,38.4883
2023-12-27T00:54:50,2420,42.8014,5.9826,13.2982,4.59929,2453.604,38.4886
2023-12-27T00:57:49,2420,42.8014,5.9826,13.2980,4.59917,2453.627,38.4877
2023-12-27T01:00:49,2420,42.8014,5.9826,13.2979,4.59931,2453.627,38.4891
2023-12-27T01:03:49,2420,42.8014,5.9826,13.2982,4.59922,2453.590,38.4879
2023-12-27T01:06:49,2420,42.8014,5.9826,13.2982,4.59923,2453.604,38.4881
2023-12-27T01:09:49,2420,42.8014,5.9826,13.2981,4.59919,2453.582,38.4877
2023-12-27T01:12:49,2420,42.8014,5.9826,13.2982,4.59928,2453.590,38.4885
2023-12-27T01:15:49,2420,42.8014,5.9826,13.2979,4.59935,2453.604,38.4894
2023-12-27T01:18:49,2420,42.8014,5.9826,13.2984,4.59934,2453.604,38.4889
2023-12-27T01:21:49,2420,42.8014,5.9826,13.2981,4.59935,2453.582,38.4893
2023-12-27T01:24:49,2420,42.8014,5.9826,13.2981,4.59940,2453.567,38.4898
2023-12-27T01:27:49,2420,42.8014,5.9826,13.2978,4.59927,2453.604,38.4888
2023-12-27T01:30:49,2420,42.8014,5.9826,13.2982,4.59931,2453.590,38.4888
2023-12-27T01:33:49,2420,42.8014,5.9826,13.2979,4.59942,2453.604,38.4902
2023-12-27T01:36:49,2420,42.8014,5.9826,13.2979,4.59927,2453.604,38.4886
2023-12-27T01:39:49,2420,42.8014,5.9826,13.2982,4.59923,2453.612,38.4880
2023-12-27T01:42:49,2420,42.8014,5.9826,13.2981,4.59929,2453.604,38.4887
2023-12-27T01:45:49,2420,42.8014,5.9826,13.2981,4.59923,2453.582,38.4881
2023-12-27T01:48:49,2420,42.8014,5.9826,13.2981,4.59920,2453.604,38.4878
2023-12-27T01:51:50,2420,42.8014,5.9826,13.2981,4.59936,2453.582,38.4893
2023-12-27T01:54:49,2420,42.8014,5.9826,13.2978,4.59932,2453.627,38.4893
2023-12-27T01:57:49,2420,42.8014,5.9826,13.2985,4.59929,2453.604,38.4883
2023-12-27T02:00:49,2420,42.8014,5.9826,13.2984,4.59932,2453.604,38.4887
2023-12-27T02:03:49,2420,42.8014,5.9826,13.2984,4.59933,2453.619,38.4887
2023-12-27T02:06:49,2420,42.8014,5.9826,13.2977,4.59929,2453.582,38.4891
2023-12-27T02:09:49,2420,42.8014,5.9826,13.2978,4.59931,2453.590,38.4892
2023-12-27T02:12:49,2420,42.8014,5.9826,13.2981,4.59926,2453.582,38.4884
2023-12-27T02:15:49,2420,42.8014,5.9826,13.2982,4.59928,2453.604,38.4886
2023-12-27T02:18:49,2420,42.8014,5.9826,13.2981,4.59931,2453.627,38.4889
2023-12-27T02:21:49,2420,42.8014,5.9826,13.2980,4.59940,2453.604,38.4898
2023-12-27T02:24:49,2420,42.8014,5.9826,13.2979,4.59942,2453.627,38.4902
2023-12-27T02:27:49,2420,42.8014,5.9826,13.2982,4.59940,2453.627,38.4897
2023-12-27T02:30:49,2420,42.8014,5.9826,13.2980,4.59962,2453.641,38.4919
2023-12-27T02:33:49,2420,42.8014,5.9826,13.2979,4.59952,2453.627,38.4911
2023-12-27T02:36:49,2420,42.8014,5.9826,13.2980,4.59930,2453.590,38.4889
2023-12-27T02:39:49,2420,42.8014,5.9826,13.2979,4.59962,2453.627,38.4920
2023-12-27T02:42:49,2420,42.8014,5.9826,13.2978,4.59937,2453.604,38.4898
2023-12-27T02:45:49,2420,42.8014,5.9826,13.2985,4.59934,2453.619,38.4888
2023-12-27T02:48:49,2420,42.8014,5.9826,13.2979,4.59928,2453.627,38.4888
2023-12-27T02:51:49,2420,42.8014,5.9826,13.2979,4.59925,2453.619,38.4885
2023-12-27T02:54:49,2420,42.8014,5.9826,13.2979,4.59931,2453.604,38.4890
2023-12-27T02:57:49,2420,42.8014,5.9826,13.2985,4.59934,2453.604,38.4888
2023-12-27T03:00:50,2420,42.8014,5.9826,13.2980,4.59929,2453.604,38.4888
2023-12-27T03:03:49,2420,42.8014,5.9826,13.2982,4.59934,2453.627,38.4891
2023-12-27T03:06:49,2420,42.8014,5.9826,13.2982,4.59933,2453.627,38.4890
2023-12-27T03:09:49,2420,42.8014,5.9826,13.2981,4.59928,2453.559,38.4886
2023-12-27T03:12:49,2420,42.8014,5.9826,13.2982,4.59938,2453.559,38.4895
2023-12-27T03:15:49,2420,42.8014,5.9826,13.2984,4.59972,2453.604,38.4924
2023-12-27T03:18:49,2420,42.8014,5.9826,13.2979,4.59967,2453.649,38.4925
2023-12-27T03:21:49,2420,42.8014,5.9826,13.2978,4.59958,2453.649,38.4917
2023-12-27T03:24:49,2420,42.8014,5.9826,13.2998,4.59990,2453.627,38.4927
2023-12-27T03:27:49,2420,42.8014,5.9826,13.2979,4.59968,2453.672,38.4925
2023-12-27T03:30:49,2420,42.8014,5.9826,13.2979,4.59962,2453.649,38.4920
2023-12-27T03:33:49,2420,42.8014,5.9826,13.2987,4.59954,2453.627,38.4905
2023-12-27T03:36:49,2420,42.8014,5.9826,13.2983,4.59950,2453.649,38.4904
2023-12-27T03:39:49,2420,42.8014,5.9826,13.2978,4.59954,2453.672,38.4913
2023-12-27T03:42:49,2420,42.8014,5.9826,13.2985,4.59951,2453.664,38.4904
2023-12-27T03:45:49,2420,42.8014,5.9826,13.2982,4.59946,2453.672,38.4902
2023-12-27T03:48:49,2420,42.8014,5.9826,13.2983,4.59968,2453.635,38.4921
2023-12-27T03:51:49,2420,42.8014,5.9826,13.2979,4.59981,2453.627,38.4937
2023-12-27T03:54:49,2420,42.8014,5.9826,13.2980,4.59965,2453.664,38.4921
2023-12-27T03:57:49,2420,42.8014,5.9826,13.3000,4.60007,2453.649,38.4941
2023-12-27T04:00:49,2420,42.8014,5.9826,13.3016,4.60028,2453.649,38.4946
2023-12-27T04:03:49,2420,42.8014,5.9826,13.2984,4.60117,2453.709,38.5061
2023-12-27T04:06:49,2420,42.8014,5.9826,13.2994,4.60133,2453.717,38.5066
2023-12-27T04:09:49,2420,42.8014,5.9826,13.2985,4.60011,2453.672,38.4960
2023-12-27T04:12:49,2420,42.8014,5.9826,13.2985,4.60202,2453.687,38.5141
2023-12-27T04:15:49,2420,42.8014,5.9826,13.3025,4.60170,2453.695,38.5070
2023-12-27T04:18:49,2420,42.8014,5.9826,13.3011,4.60412,2453.695,38.5312
2023-12-27T04:21:49,2420,42.8014,5.9826,13.2988,4.60169,2453.649,38.5106
2023-12-27T04:24:49,2420,42.8014,5.9826,13.2991,4.60011,2453.695,38.4954
2023-12-27T04:27:49,2420,42.8014,5.9826,13.2977,4.59953,2453.709,38.4913
2023-12-27T04:30:49,2420,42.8014,5.9826,13.2980,4.59943,2453.754,38.4901
2023-12-27T04:33:49,2420,42.8014,5.9826,13.2983,4.59931,2453.740,38.4887
2023-12-27T04:36:49,2420,42.8014,5.9826,13.2981,4.59933,2453.754,38.4890
2023-12-27T04:39:49,2420,42.8014,5.9826,13.2982,4.59928,2453.740,38.4884
2023-12-27T04:42:49,2420,42.8014,5.9826,13.2979,4.59949,2453.740,38.4907
2023-12-27T04:45:49,2420,42.8014,5.9826,13.2979,4.59918,2453.740,38.4878
2023-12-27T04:48:49,2420,42.8014,5.9826,13.2975,4.59948,2453.740,38.4910
2023-12-27T04:51:49,2420,42.8014,5.9826,13.2984,4.59937,2453.717,38.4890
2023-12-27T04:54:49,2420,42.8014,5.9826,13.2979,4.59936,2453.740,38.4895
2023-12-27T04:57:49,2420,42.8014,5.9826,13.2982,4.59932,2453.762,38.4889
2023-12-27T05:00:49,2420,42.8014,5.9826,13.2975,4.59926,2453.762,38.4889
2023-12-27T05:03:49,2420,42.8014,5.9826,13.2979,4.59949,2453.762,38.4907
2023-12-27T05:06:49,2420,42.8014,5.9826,13.2980,4.59926,2453.762,38.4884
2023-12-27T05:09:49,2420,42.8014,5.9826,13.2981,4.59922,2453.785,38.4879
2023-12-27T05:12:49,2420,42.8014,5.9826,13.2978,4.59926,2453.777,38.4887
2023-12-27T05:15:49,2420,42.8014,5.9826,13.2980,4.59941,2453.762,38.4898
2023-12-27T05:18:49,2420,42.8014,5.9826,13.2980,4.59934,2453.748,38.4892
2023-12-27T05:21:49,2420,42.8014,5.9826,13.2979,4.59927,2453.762,38.4886
2023-12-27T05:24:49,2420,42.8014,5.9826,13.2977,4.59932,2453.785,38.4893
2023-12-27T05:27:49,2420,42.8014,5.9826,13.2978,4.59936,2453.785,38.4896
2023-12-27T05:30:49,2420,42.8014,5.9826,13.2976,4.59937,2453.762,38.4898
2023-12-27T05:33:49,2420,42.8014,5.9826,13.2978,4.59923,2453.785,38.4884
2023-12-27T05:36:49,2420,42.8014,5.9826,13.2978,4.59932,2453.785,38.4892
2023-12-27T05:39:49,2420,42.8014,5.9826,13.2982,4.59950,2453.785,38.4905
2023-12-27T05:42:49,2420,42.8014,5.9826,13.2979,4.59934,2453.800,38.4893
2023-12-27T05:45:49,2420,42.8014,5.9826,13.2980,4.59964,2453.785,38.4920
2023-12-27T05:48:49,2420,42.8014,5.9826,13.2978,4.59955,2453.807,38.4913
2023-12-27T05:51:49,2420,42.8014,5.9826,13.2980,4.59949,2453.807,38.4906
2023-12-27T05:54:49,2420,42.8014,5.9826,13.2982,4.59971,2453.807,38.4924
2023-12-27T05:57:49,2420,42.8014,5.9826,13.2978,4.59953,2453.785,38.4911
2023-12-27T06:00:49,2420,42.8014,5.9826,13.2983,4.59960,2453.807,38.4913
2023-12-27T06:03:49,2420,42.8014,5.9826,13.2978,4.59937,2453.807,38.4896
2023-12-27T06:06:49,2420,42.8014,5.9826,13.2982,4.59948,2453.853,38.4903
2023-12-27T06:09:49,2420,42.8014,5.9826,13.2982,4.59943,2453.815,38.4898
2023-12-27T06:12:49,2420,42.8014,5.9826,13.2982,4.59929,2453.807,38.4886
2023-12-27T06:15:49,2420,42.8014,5.9826,13.2985,4.59948,2453.807,38.4900
2023-12-27T06:18:49,2420,42.8014,5.9826,13.2983,4.59979,2453.845,38.4931
2023-12-27T06:21:49,2420,42.8014,5.9826,13.2979,4.59951,2453.815,38.4908
2023-12-27T06:24:49,2420,42.8014,5.9826,13.2981,4.59941,2453.830,38.4897
2023-12-27T06:27:50,2420,42.8014,5.9826,13.2984,4.59946,2453.807,38.4899
2023-12-27T06:30:49,2420,42.8014,5.9826,13.2982,4.59982,2453.830,38.4935
2023-12-27T06:33:49,2420,42.8014,5.9826,13.2979,4.59952,2453.815,38.4910
2023-12-27T06:36:49,2420,42.8014,5.9826,13.2978,4.59939,2453.830,38.4898
2023-12-27T06:39:49,2420,42.8014,5.9826,13.2989,4.60021,2453.830,38.4964
2023-12-27T06:42:49,2420,42.8014,5.9826,13.2979,4.60007,2453.830,38.4961
2023-12-27T06:45:49,2420,42.8014,5.9826,13.2986,4.59972,2453.830,38.4922
2023-12-27T06:48:49,2420,42.8014,5.9826,13.3004,4.59973,2453.853,38.4904
2023-12-27T06:51:49,2420,42.8014,5.9826,13.3008,4.60121,2453.853,38.5040
2023-12-27T06:54:49,2420,42.8014,5.9826,13.3029,4.60044,2453.845,38.4946
2023-12-27T06:57:49,2420,42.8014,5.9826,13.3019,4.60113,2453.853,38.5022
2023-12-27T07:00:49,2420,42.8014,5.9826,13.3043,4.60067,2453.830,38.4954
2023-12-27T07:03:49,2420,42.8014,5.9826,13.3480,4.60067,2453.853,38.4521
2023-12-27T07:06:49,2420,42.8014,5.9826,13.3089,4.60247,2453.853,38.5079
2023-12-27T07:09:49,2420,42.8014,5.9826,13.3171,4.60053,2453.830,38.4814
2023-12-27T07:12:49,2420,42.8014,5.9826,13.3000,4.60053,2453.822,38.4984
2023-12-27T07:15:49,2420,42.8014,5.9826,13.3051,4.60076,2453.845,38.4954
2023-12-27T07:18:49,2420,42.8014,5.9826,13.3027,4.60095,2453.830,38.4996
2023-12-27T07:21:49,2420,42.8014,5.9826,13.3198,4.60061,2453.867,38.4795
2023-12-27T07:24:49,2420,42.8014,5.9826,13.3076,4.60057,2453.853,38.4912
2023-12-27T07:27:49,2420,42.8014,5.9826,13.3281,4.60068,2453.853,38.4720
2023-12-27T07:30:50,2420,42.8014,5.9826,13.3253,4.60002,2453.875,38.4685
2023-12-27T07:33:49,2420,42.8014,5.9826,13.3305,4.60041,2453.867,38.4669
2023-12-27T07:36:49,2420,42.8014,5.9826,13.3262,4.60013,2453.867,38.4686
2023-12-27T07:39:49,2420,42.8014,5.9826,13.3076,4.60019,2453.853,38.4877
2023-12-27T07:42:49,2420,42.8014,5.9826,13.3288,4.59988,2453.867,38.4637
2023-12-27T07:45:49,2420,42.8014,5.9826,13.3210,4.59977,2453.853,38.4704
2023-12-27T07:48:49,2420,42.8014,5.9826,13.3326,4.59982,2453.890,38.4593
2023-12-27T07:51:49,2420,42.8014,5.9826,13.3122,4.59980,2453.853,38.4795
2023-12-27T07:54:50,2420,42.8014,5.9826,13.3264,4.60013,2453.867,38.4684
2023-12-27T07:57:49,2420,42.8014,5.9826,13.3030,4.59987,2453.875,38.4891
2023-12-27T08:00:49,2420,42.8014,5.9826,13.3292,4.59991,2453.875,38.4636
2023-12-27T08:03:49,2420,42.8014,5.9826,13.3125,4.60004,2453.867,38.4813
2023-12-27T08:06:49,2420,42.8014,5.9826,13.3165,4.59985,2453.853,38.4756
2023-12-27T08:09:49,2420,42.8014,5.9826,13.3152,4.59988,2453.853,38.4771
2023-12-27T08:12:49,2420,42.8014,5.9826,13.3156,4.59980,2453.875,38.4760
2023-12-27T08:15:49,2420,42.8014,5.9826,13.3148,4.59991,2453.890,38.4779
2023-12-27T08:18:49,2420,42.8014,5.9826,13.3137,4.59968,2453.912,38.4768
2023-12-27T08:21:48,2420,42.8014,5.9826,13.3076,4.60000,2453.853,38.4859
2023-12-27T08:24:49,2420,42.8014,5.9826,13.3072,4.59974,2453.853,38.4838
2023-12-27T08:27:49,2420,42.8014,5.9826,13.3063,4.59943,2453.853,38.4817
2023-12-27T08:30:49,2420,42.8014,5.9826,13.3069,4.59982,2453.875,38.4849
2023-12-27T08:33:49,2420,42.8014,5.9826,13.3067,4.59992,2453.853,38.4860
2023-12-27T08:36:49,2420,42.8014,5.9826,13.3206,4.59991,2453.875,38.4722
2023-12-27T08:39:49,2420,42.8014,5.9826,13.3650,4.60003,2453.853,38.4292
2023-12-27T08:42:49,2420,42.8014,5.9826,13.3147,4.59980,2453.853,38.4769
2023-12-27T08:45:49,2420,42.8014,5.9826,13.3089,4.59984,2453.853,38.4830
2023-12-27T08:48:49,2420,42.8014,5.9826,13.3079,4.59990,2453.875,38.4846
2023-12-27T08:51:49,2420,42.8014,5.9826,13.3077,4.59954,2453.853,38.4814
2023-12-27T08:54:49,2420,42.8014,5.9826,13.3073,4.60002,2453.853,38.4863
2023-12-27T08:57:49,2420,42.8014,5.9826,13.3061,4.60003,2453.853,38.4876
2023-12-27T09:00:50,2420,42.8014,5.9826,13.3051,4.60011,2453.853,38.4894
2023-12-27T09:03:49,2420,42.8014,5.9826,13.3045,4.60028,2453.853,38.4915
2023-12-27T09:06:49,2420,42.8014,5.9826,13.3043,4.60014,2453.853,38.4904
2023-12-27T09:09:49,2420,42.8014,5.9826,13.3034,4.60011,2453.853,38.4911
2023-12-27T09:12:49,2420,42.8014,5.9826,13.3037,4.59993,2453.838,38.4891
2023-12-27T09:15:49,2420,42.8014,5.9826,13.3051,4.59976,2453.845,38.4860
2023-12-27T09:18:49,2420,42.8014,5.9826,13.3038,4.59948,2453.845,38.4847
2023-12-27T09:21:49,2420,42.8014,5.9826,13.3023,4.59922,2453.853,38.4838
2023-12-27T09:24:50,2420,42.8014,5.9826,13.3033,4.59923,2453.830,38.4829
2023-12-27T09:27:49,2420,42.8014,5.9826,13.3021,4.59921,2453.853,38.4839
2023-12-27T09:30:49,2420,42.8014,5.9826,13.3000,4.59915,2453.830,38.4853
2023-12-27T09:33:49,2420,42.8014,5.9826,13.2992,4.59941,2453.830,38.4886
2023-12-27T09:36:49,2420,42.8014,5.9826,13.3002,4.59977,2453.853,38.4910
2023-12-27T09:39:49,2420,42.8014,5.9826,13.2999,4.59984,2453.830,38.4920
2023-12-27T09:42:49,2420,42.8014,5.9826,13.3002,4.60032,2453.867,38.4962
2023-12-27T09:45:49,2420,42.8014,5.9826,13.3033,4.59994,2453.853,38.4896
2023-12-27T09:48:49,2420,42.8014,5.9826,13.3032,4.60010,2453.875,38.4911
2023-12-27T09:51:49,2420,42.8014,5.9826,13.3041,4.60011,2453.830,38.4904
2023-12-27T09:54:49,2420,42.8014,5.9826,13.3056,4.60005,2453.830,38.4883
2023-12-27T09:57:49,2420,42.8014,5.9826,13.3044,4.60018,2453.830,38.4907
2023-12-27T10:00:49,2420,42.8014,5.9826,13.3072,4.59990,2453.830,38.4853
2023-12-27T10:03:49,2420,42.8014,5.9826,13.3049,4.59985,2453.807,38.4872
2023-12-27T10:06:49,2420,42.8014,5.9826,13.3084,4.59979,2453.853,38.4831
2023-12-27T10:09:49,2420,42.8014,5.9826,13.3076,4.59972,2453.845,38.4832
2023-12-27T10:12:49,2420,42.8014,5.9826,13.3166,4.59959,2453.807,38.4731
2023-12-27T10:15:49,2420,42.8014,5.9826,13.3088,4.59973,2453.845,38.4821
2023-12-27T10:18:49,2420,42.8014,5.9826,13.3102,4.59957,2453.845,38.4793
2023-12-27T10:21:49,2420,42.8014,5.9826,13.3029,4.60006,2453.785,38.4912
2023-12-27T10:24:49,2420,42.8014,5.9826,13.3137,4.59927,2453.807,38.4729
2023-12-27T10:27:49,2420,42.8014,5.9826,13.3156,4.59965,2453.830,38.4746
2023-12-27T10:30:49,2420,42.8014,5.9826,13.3106,4.59941,2453.807,38.4774
2023-12-27T10:33:49,2420,42.8014,5.9826,13.3123,4.59999,2453.822,38.4812
2023-12-27T10:36:49,2420,42.8014,5.9826,13.3115,4.59957,2453.785,38.4780
2023-12-27T10:39:49,2420,42.8014,5.9826,13.3053,4.59946,2453.807,38.4830
2023-12-27T10:42:49,2420,42.8014,5.9826,13.3017,4.59922,2453.785,38.4844
2023-12-27T10:45:49,2420,42.8014,5.9826,13.3244,4.59991,2453.807,38.4683
2023-12-27T10:48:49,2420,42.8014,5.9826,13.3093,4.59962,2453.807,38.4806
2023-12-27T10:51:49,2420,42.8014,5.9826,13.3029,4.59949,2453.793,38.4857
2023-12-27T10:54:49,2420,42.8014,5.9826,13.3120,4.59948,2453.800,38.4765
2023-12-27T10:57:49,2420,42.8014,5.9826,13.3027,4.59957,2453.762,38.4867
2023-12-27T11:00:49,2420,42.8014,5.9826,13.3036,4.59937,2453.785,38.4838
2023-12-27T11:03:49,2420,42.8014,5.9826,13.3247,4.59957,2453.762,38.4649
2023-12-27T11:06:49,2420,42.8014,5.9826,13.3199,4.59957,2453.785,38.4696
2023-12-27T11:09:49,2420,42.8014,5.9826,13.3094,4.59947,2453.762,38.4791
2023-12-27T11:12:49,2420,42.8014,5.9826,13.3029,4.59942,2453.785,38.4850
2023-12-27T11:15:49,2420,42.8014,5.9826,13.3042,4.59933,2453.762,38.4829
2023-12-27T11:18:49,2420,42.8014,5.9826,13.3438,4.59942,2453.762,38.4446
2023-12-27T11:21:49,2420,42.8014,5.9826,13.3045,4.59957,2453.777,38.4849
2023-12-27T11:24:49,2420,42.8014,5.9826,13.3029,4.59956,2453.762,38.4864
2023-12-27T11:27:49,2420,42.8014,5.9826,13.3064,4.59931,2453.777,38.4805
2023-12-27T11:30:49,2420,42.8014,5.9826,13.3027,4.59936,2453.762,38.4847
2023-12-27T11:33:49,2420,42.8014,5.9826,13.3086,4.59931,2453.740,38.4783
2023-12-27T11:36:49,2420,42.8014,5.9826,13.3073,4.59956,2453.762,38.4820
2023-12-27T11:39:49,2420,42.8014,5.9826,13.3041,4.59953,2453.777,38.4849
2023-12-27T11:42:49,2420,42.8014,5.9826,13.2999,4.59932,2453.748,38.4871
2023-12-27T11:45:49,2420,42.8014,5.9826,13.3274,4.59954,2453.754,38.4619
2023-12-27T11:48:49,2420,42.8014,5.9826,13.3113,4.59942,2453.777,38.4767
2023-12-27T11:51:49,2420,42.8014,5.9826,13.2999,4.59971,2453.740,38.4908
2023-12-27T11:54:49,2420,42.8014,5.9826,13.3109,4.59959,2453.740,38.4787
2023-12-27T11:57:49,2420,42.8014,5.9826,13.3106,4.59942,2453.740,38.4774
2023-12-27T12:00:49,2420,42.8014,5.9826,13.3014,4.59941,2453.754,38.4865
2023-12-27T12:03:49,2420,42.8014,5.9826,13.3066,4.59960,2453.740,38.4831
2023-12-27T12:06:49,2420,42.8014,5.9826,13.3051,4.59961,2453.740,38.4847
2023-12-27T12:09:49,2420,42.8014,5.9826,13.3094,4.59953,2453.754,38.4796
2023-12-27T12:12:49,2420,42.8014,5.9826,13.3221,4.59945,2453.717,38.4663
2023-12-27T12:15:49,2420,42.8014,5.9826,13.3401,4.60011,2453.740,38.4547
2023-12-27T12:18:49,2420,42.8014,5.9826,13.3234,4.60021,2453.717,38.4722
2023-12-27T12:21:49,2420,42.8014,5.9826,13.3047,4.60007,2453.740,38.4894
2023-12-27T12:24:49,2420,42.8014,5.9826,13.3038,4.59991,2453.732,38.4888
2023-12-27T12:27:49,2420,42.8014,5.9826,13.3042,4.59964,2453.732,38.4858
2023-12-27T12:30:49,2420,42.8014,5.9826,13.3380,4.60027,2453.695,38.4583
2023-12-27T12:33:49,2420,42.8014,5.9826,13.3363,4.60031,2453.717,38.4604
2023-12-27T12:36:49,2420,42.8014,5.9826,13.3341,4.60015,2453.754,38.4610
2023-12-27T12:39:49,2420,42.8014,5.9826,13.3249,4.60044,2453.725,38.4729
2023-12-27T12:42:49,2420,42.8014,5.9826,13.3737,4.60166,2453.732,38.4359
2023-12-27T12:45:49,2420,42.8014,5.9826,13.3111,4.60060,2453.717,38.4881
2023-12-27T12:48:49,2420,42.8014,5.9826,13.3167,4.60119,2453.740,38.4882
2023-12-27T12:51:49,2420,42.8014,5.9826,13.3102,4.60215,2453.717,38.5037
2023-12-27T12:54:49,2420,42.8014,5.9826,13.3834,4.60225,2453.695,38.4320
2023-12-27T12:57:49,2420,42.8014,5.9826,13.3339,4.60493,2453.709,38.5063
2023-12-27T13:00:49,2420,42.8014,5.9826,13.3061,4.60431,2453.709,38.5281
2023-12-27T13:03:49,2420,42.8014,5.9826,13.3529,4.60275,2453.695,38.4669
2023-12-27T13:06:49,2420,42.8014,5.9826,13.3557,4.60307,2453.709,38.4672
2023-12-27T13:09:49,2420,42.8014,5.9826,13.3423,4.60319,2453.709,38.4816
2023-12-27T13:12:49,2420,42.8014,5.9826,13.3018,4.60223,2453.709,38.5128
2023-12-27T13:15:49,2420,42.8014,5.9826,13.3023,4.60137,2453.695,38.5041
2023-12-27T13:18:49,2420,42.8014,5.9826,13.3375,4.60218,2453.687,38.4769
2023-12-27T13:21:49,2420,42.8014,5.9826,13.3646,4.60022,2453.717,38.4314
2023-12-27T13:24:49,2420,42.8014,5.9826,13.3101,4.60038,2453.687,38.4870
2023-12-27T13:27:49,2420,42.8014,5.9826,13.3538,4.60172,2453.732,38.4563
2023-12-27T13:30:50,2420,42.8014,5.9826,13.3109,4.60084,2453.709,38.4906
2023-12-27T13:33:49,2420,42.8014,5.9826,13.3092,4.60149,2453.709,38.4984
2023-12-27T13:36:49,2420,42.8014,5.9826,13.3216,4.60010,2453.709,38.4729
2023-12-27T13:39:49,2420,42.8014,5.9826,13.3045,4.60031,2453.672,38.4920
2023-12-27T13:42:49,2420,42.8014,5.9826,13.3152,4.60012,2453.672,38.4795
2023-12-27T13:45:49,2420,42.8014,5.9826,13.3113,4.60034,2453.672,38.4855
2023-12-27T13:48:49,2420,42.8014,5.9826,13.3073,4.60022,2453.680,38.4883
2023-12-27T13:51:49,2420,42.8014,5.9826,13.3020,4.60104,2453.732,38.5013
2023-12-27T13:54:49,2420,42.8014,5.9826,13.3078,4.60104,2453.695,38.4955
2023-12-27T13:57:49,2420,42.8014,5.9826,13.3039,4.60237,2453.672,38.5120
2023-12-27T14:00:49,2420,42.8014,5.9826,13.3084,4.60097,2453.672,38.4943
2023-12-27T14:03:49,2420,42.8014,5.9826,13.3137,4.60156,2453.695,38.4946
2023-12-27T14:06:49,2420,42.8014,5.9826,13.3029,4.60035,2453.664,38.4938
2023-12-27T14:09:49,2420,42.8014,5.9826,13.3007,4.60307,2453.709,38.5218
2023-12-27T14:12:49,2420,42.8014,5.9826,13.3018,4.60031,2453.687,38.4946
2023-12-27T14:15:49,2420,42.8014,5.9826,13.3005,4.60060,2453.649,38.4986
2023-12-27T14:18:49,2420,42.8014,5.9826,13.3161,4.60107,2453.695,38.4875
2023-12-27T14:21:49,2420,42.8014,5.9826,13.3092,4.60109,2453.649,38.4946
2023-12-27T14:24:49,2420,42.8014,5.9826,13.3024,4.60000,2453.672,38.4911
2023-12-27T14:27:49,2420,42.8014,5.9826,13.3062,4.59993,2453.695,38.4866
2023-12-27T14:30:49,2420,42.8014,5.9826,13.3067,4.60058,2453.687,38.4923
2023-12-27T14:33:49,2420,42.8014,5.9826,13.3047,4.60082,2453.635,38.4966
2023-12-27T14:36:49,2420,42.8014,5.9826,13.3033,4.59964,2453.695,38.4868
2023-12-27T14:39:49,2420,42.8014,5.9826,13.3033,4.59996,2453.672,38.4898
2023-12-27T14:42:49,2420,42.8014,5.9826,13.3005,4.60016,2453.672,38.4945
2023-12-27T14:45:49,2420,42.8014,5.9826,13.3005,4.60016,2453.649,38.4945
2023-12-27T14:48:49,2420,42.8014,5.9826,13.3034,4.60130,2453.649,38.5023
2023-12-27T14:51:49,2420,42.8014,5.9826,13.3158,4.60010,2453.695,38.4787
2023-12-27T14:54:49,2420,42.8014,5.9826,13.3126,4.59986,2453.695,38.4796
2023-12-27T14:57:49,2420,42.8014,5.9826,13.3088,4.59985,2453.672,38.4834
2023-12-27T15:00:49,2420,42.8014,5.9826,13.3192,4.60169,2453.687,38.4903
2023-12-27T15:03:49,2420,42.8014,5.9826,13.3213,4.60065,2453.672,38.4785
2023-12-27T15:06:49,2420,42.8014,5.9826,13.3069,4.60008,2453.687,38.4873
2023-12-27T15:09:49,2420,42.8014,5.9826,13.3162,4.60036,2453.664,38.4808
2023-12-27T15:12:49,2420,42.8014,5.9826,13.3074,4.60027,2453.695,38.4886
2023-12-27T15:15:49,2420,42.8014,5.9826,13.3029,4.60008,2453.672,38.4912
2023-12-27T15:18:49,2420,42.8014,5.9826,13.3038,4.60013,2453.672,38.4910
2023-12-27T15:21:49,2420,42.8014,5.9826,13.3000,4.60099,2453.709,38.5028
2023-12-27T15:24:49,2420,42.8014,5.9826,13.3086,4.60139,2453.701,38.4980
2023-12-27T15:27:49,2420,42.8014,5.9826,13.3068,4.60065,2453.695,38.4928
2023-12-27T15:30:49,2420,42.8014,5.9826,13.3075,4.60004,2453.672,38.4864
2023-12-27T15:33:49,2420,42.8014,5.9826,13.2997,4.59980,2453.672,38.4919
2023-12-27T15:36:49,2420,42.8014,5.9826,13.2981,4.59989,2453.695,38.4943
2023-12-27T15:39:49,2420,42.8014,5.9826,13.3004,4.60075,2453.695,38.5001
2023-12-27T15:42:49,2420,42.8014,5.9826,13.3002,4.60064,2453.695,38.4992
2023-12-27T15:45:49,2420,42.8014,5.9826,13.2985,4.60224,2453.717,38.5161
2023-12-27T15:48:49,2420,42.8014,5.9826,13.2983,4.60351,2453.695,38.5282
2023-12-27T15:51:49,2420,42.8014,5.9826,13.2985,4.59984,2453.687,38.4935
2023-12-27T15:54:49,2420,42.8014,5.9826,13.2986,4.59937,2453.695,38.4889
2023-12-27T15:57:49,2420,42.8014,5.9826,13.2979,4.59941,2453.680,38.4899
2023-12-27T16:00:49,2420,42.8014,5.9826,13.2982,4.59938,2453.695,38.4894
2023-12-27T16:03:49,2420,42.8014,5.9826,13.2985,4.59924,2453.695,38.4878